RYR8LP EBCI-LKPR

Flight info

Callsign RYR8LP
Flight time 1h 12m
Altitude 35000
Route SOPOK Y863 OGLOR DCT EMGOD DCT BOMBI DCT BOREP DCT TONSU Z35 ODOMO DCT LOMKI
Aircraft B738/M-SDE2E3FGHIRWXY/LB1

Departure

Time 2026-05-06 18:25
Airport Brussels South Charleroi Airport (EBCI)

Arrival

Time 2026-05-06 19:38
Airport Václav Havel Airport Prague (LKPR)
Time Latitude Longitude Altitude Speed Heading
2026-05-06 18:03 50.46806 4.46875 584 ft 0 kts 335°
2026-05-06 18:15 50.46791 4.46886 584 ft 4 kts 335°
2026-05-06 18:15 50.46768 4.46901 584 ft 4 kts 356°
2026-05-06 18:15 50.46749 4.46890 585 ft 5 kts 62°
2026-05-06 18:16 50.46739 4.46857 586 ft 3 kts 65°
2026-05-06 18:18 50.46747 4.46885 585 ft 6 kts 66°
2026-05-06 18:18 50.46778 4.46991 584 ft 14 kts 65°
2026-05-06 18:18 50.46819 4.47130 585 ft 14 kts 65°
2026-05-06 18:19 50.46857 4.47260 584 ft 12 kts 67°
2026-05-06 18:19 50.46890 4.47375 584 ft 12 kts 65°
2026-05-06 18:19 50.46926 4.47496 585 ft 8 kts 65°
2026-05-06 18:19 50.46927 4.47580 586 ft 8 kts 123°
2026-05-06 18:20 50.46923 4.47589 587 ft 0 kts 129°
2026-05-06 18:20 50.46906 4.47610 587 ft 7 kts 148°
2026-05-06 18:21 50.46858 4.47646 590 ft 6 kts 154°
2026-05-06 18:21 50.46839 4.47660 591 ft 0 kts 155°
2026-05-06 18:22 50.46830 4.47667 592 ft 6 kts 156°
2026-05-06 18:22 50.46781 4.47700 594 ft 8 kts 156°
2026-05-06 18:23 50.46729 4.47736 594 ft 8 kts 156°
2026-05-06 18:23 50.46686 4.47699 592 ft 0 kts 245°
2026-05-06 18:24 50.46679 4.47673 592 ft 10 kts 245°
2026-05-06 18:24 50.46558 4.47253 595 ft 77 kts 245°
2026-05-06 18:25 50.46241 4.46166 589 ft 139 kts 245°
2026-05-06 18:25 50.45795 4.44611 890 ft 162 kts 246°
2026-05-06 18:25 50.45315 4.42976 1543 ft 168 kts 246°
2026-05-06 18:25 50.44843 4.41360 2327 ft 166 kts 246°
2026-05-06 18:26 50.44347 4.39642 2967 ft 176 kts 246°
2026-05-06 18:26 50.43816 4.37813 3514 ft 193 kts 247°
2026-05-06 18:26 50.43238 4.35809 3997 ft 209 kts 247°
2026-05-06 18:26 50.42621 4.33682 4324 ft 228 kts 246°
2026-05-06 18:27 50.41941 4.31357 4847 ft 238 kts 246°
2026-05-06 18:27 50.41257 4.28983 5702 ft 239 kts 246°
2026-05-06 18:27 50.40253 4.26911 6481 ft 245 kts 216°
2026-05-06 18:27 50.38654 4.25975 7146 ft 251 kts 184°
2026-05-06 18:28 50.37498 4.26151 7544 ft 258 kts 164°
2026-05-06 18:28 50.35867 4.27571 7815 ft 281 kts 133°
2026-05-06 18:28 50.34721 4.31196 8677 ft 286 kts 99°
2026-05-06 18:28 50.34457 4.34306 9416 ft 290 kts 94°
2026-05-06 18:29 50.34286 4.37476 10178 ft 294 kts 93°
2026-05-06 18:29 50.34180 4.39680 10410 ft 308 kts 93°
2026-05-06 18:29 50.34016 4.43110 10638 ft 330 kts 93°
2026-05-06 18:29 50.33831 4.46748 11201 ft 340 kts 94°
2026-05-06 18:30 50.33630 4.50448 11994 ft 341 kts 94°
2026-05-06 18:30 50.33419 4.54164 12780 ft 344 kts 95°
2026-05-06 18:30 50.33199 4.57919 13516 ft 349 kts 95°
2026-05-06 18:30 50.32971 4.61724 14249 ft 353 kts 95°
2026-05-06 18:31 50.32737 4.65573 15008 ft 357 kts 95°
2026-05-06 18:31 50.32498 4.69462 15762 ft 360 kts 95°
2026-05-06 18:31 50.32254 4.73382 16478 ft 364 kts 95°
2026-05-06 18:31 50.32006 4.77351 17176 ft 368 kts 96°
2026-05-06 18:32 50.31754 4.81362 17865 ft 372 kts 96°
2026-05-06 18:32 50.31498 4.85418 18533 ft 376 kts 96°
2026-05-06 18:32 50.31238 4.89504 19195 ft 380 kts 96°
2026-05-06 18:32 50.30974 4.93635 19825 ft 384 kts 96°
2026-05-06 18:33 50.30705 4.97813 20440 ft 387 kts 96°
2026-05-06 18:33 50.30432 5.02026 21031 ft 391 kts 96°
2026-05-06 18:33 50.30159 5.06235 21613 ft 395 kts 96°
2026-05-06 18:33 50.29879 5.10519 22184 ft 398 kts 96°
2026-05-06 18:34 50.29594 5.14846 22732 ft 401 kts 96°
2026-05-06 18:34 50.29306 5.19202 23255 ft 405 kts 97°
2026-05-06 18:34 50.29012 5.23619 23789 ft 408 kts 97°
2026-05-06 18:34 50.28716 5.28050 24286 ft 411 kts 96°
2026-05-06 18:35 50.28452 5.32516 24782 ft 414 kts 96°
2026-05-06 18:35 50.28221 5.37019 25289 ft 416 kts 95°
2026-05-06 18:35 50.28004 5.41497 25762 ft 419 kts 95°
2026-05-06 18:35 50.27783 5.46054 26219 ft 422 kts 95°
2026-05-06 18:36 50.27552 5.50704 26662 ft 424 kts 95°
2026-05-06 18:36 50.27322 5.55249 27085 ft 427 kts 95°
2026-05-06 18:36 50.27081 5.59900 27505 ft 430 kts 96°
2026-05-06 18:36 50.26836 5.64565 27919 ft 432 kts 96°
2026-05-06 18:37 50.26586 5.69256 28309 ft 435 kts 96°
2026-05-06 18:37 50.26332 5.73972 28696 ft 437 kts 96°
2026-05-06 18:37 50.26075 5.78723 29063 ft 439 kts 96°
2026-05-06 18:37 50.25813 5.83505 29404 ft 442 kts 96°
2026-05-06 18:38 50.25550 5.88284 29848 ft 441 kts 96°
2026-05-06 18:38 50.25286 5.93046 30358 ft 439 kts 96°
2026-05-06 18:38 50.25022 5.97774 30839 ft 437 kts 96°
2026-05-06 18:38 50.24754 6.02504 31229 ft 437 kts 96°
2026-05-06 18:39 50.24484 6.07252 31608 ft 438 kts 96°
2026-05-06 18:39 50.24215 6.11984 32003 ft 437 kts 96°
2026-05-06 18:39 50.23946 6.16645 32403 ft 436 kts 96°
2026-05-06 18:40 50.23399 6.26070 33140 ft 436 kts 96°
2026-05-06 18:40 50.23122 6.30779 33497 ft 435 kts 96°
2026-05-06 18:40 50.22841 6.35492 33857 ft 435 kts 97°
2026-05-06 18:40 50.22551 6.40190 34208 ft 434 kts 97°
2026-05-06 18:41 50.22263 6.44893 34520 ft 435 kts 97°
2026-05-06 18:41 50.21978 6.49594 34788 ft 436 kts 97°
2026-05-06 18:41 50.21690 6.54336 34841 ft 441 kts 97°
2026-05-06 18:42 50.21104 6.63894 34843 ft 441 kts 97°
2026-05-06 18:42 50.20520 6.73327 34845 ft 434 kts 97°
2026-05-06 18:43 50.19928 6.82710 34847 ft 435 kts 97°
2026-05-06 18:43 50.19325 6.92120 34837 ft 436 kts 97°
2026-05-06 18:44 50.18718 7.01494 34851 ft 437 kts 97°
2026-05-06 18:44 50.18098 7.10946 34857 ft 438 kts 98°
2026-05-06 18:45 50.17471 7.20396 34861 ft 438 kts 98°
2026-05-06 18:45 50.16834 7.29868 34852 ft 439 kts 98°
2026-05-06 18:46 50.16189 7.39335 34843 ft 438 kts 98°
2026-05-06 18:46 50.15538 7.48783 34844 ft 438 kts 98°
2026-05-06 18:47 50.14881 7.58207 34838 ft 438 kts 98°
2026-05-06 18:47 50.14216 7.67640 34837 ft 437 kts 98°
2026-05-06 18:48 50.13550 7.76986 34842 ft 436 kts 98°
2026-05-06 18:48 50.12875 7.86375 34819 ft 435 kts 98°
2026-05-06 18:49 50.12464 7.95809 34835 ft 436 kts 95°
2026-05-06 18:49 50.12199 8.05238 34825 ft 435 kts 95°
2026-05-06 18:50 50.11915 8.14652 34829 ft 435 kts 95°
2026-05-06 18:50 50.11590 8.24074 34831 ft 435 kts 95°
2026-05-06 18:51 50.11247 8.33507 34829 ft 436 kts 96°
2026-05-06 18:51 50.10896 8.42933 34827 ft 436 kts 96°
2026-05-06 18:52 50.10536 8.52374 34829 ft 437 kts 96°
2026-05-06 18:52 50.10171 8.61764 34833 ft 437 kts 96°
2026-05-06 18:53 50.09796 8.71219 34832 ft 437 kts 96°
2026-05-06 18:53 50.09412 8.80689 34832 ft 438 kts 96°
2026-05-06 18:54 50.09022 8.90152 34835 ft 438 kts 96°
2026-05-06 18:54 50.08622 8.99647 34836 ft 439 kts 96°
2026-05-06 18:55 50.08215 9.09149 34830 ft 440 kts 96°
2026-05-06 18:55 50.07800 9.18602 34832 ft 440 kts 96°
2026-05-06 18:56 50.07375 9.28152 34826 ft 442 kts 96°
2026-05-06 18:56 50.06941 9.37705 34824 ft 442 kts 97°
2026-05-06 18:57 50.06500 9.47256 34808 ft 442 kts 97°
2026-05-06 18:57 50.06047 9.56767 34816 ft 443 kts 97°
2026-05-06 18:58 50.05592 9.66345 34805 ft 443 kts 97°
2026-05-06 18:58 50.05128 9.75912 34806 ft 442 kts 97°
2026-05-06 18:59 50.04657 9.85446 34804 ft 442 kts 97°
2026-05-06 18:59 50.04178 9.94981 34812 ft 441 kts 97°
2026-05-06 19:00 50.03690 10.04466 34804 ft 442 kts 97°
2026-05-06 19:00 50.03283 10.12390 34800 ft 442 kts 97°
2026-05-06 19:01 50.02968 10.18564 34805 ft 441 kts 97°
2026-05-06 19:01 50.02466 10.28084 34808 ft 441 kts 97°
2026-05-06 19:02 50.01951 10.37553 34801 ft 442 kts 97°
2026-05-06 19:02 50.01423 10.47098 34810 ft 442 kts 97°
2026-05-06 19:03 50.00892 10.56633 34818 ft 443 kts 97°
2026-05-06 19:03 50.00354 10.66190 34813 ft 444 kts 98°
2026-05-06 19:04 49.99803 10.75751 34799 ft 444 kts 98°
2026-05-06 19:04 49.99244 10.85331 34806 ft 445 kts 98°
2026-05-06 19:05 49.98689 10.94900 34813 ft 445 kts 98°
2026-05-06 19:05 49.98115 11.04457 34813 ft 445 kts 98°
2026-05-06 19:06 49.97525 11.14041 34801 ft 445 kts 98°
2026-05-06 19:06 49.96938 11.23629 34795 ft 445 kts 98°
2026-05-06 19:07 49.96587 11.33270 34795 ft 447 kts 95°
2026-05-06 19:07 49.96328 11.42892 34241 ft 449 kts 96°
2026-05-06 19:07 49.96179 11.47739 33686 ft 449 kts 96°
2026-05-06 19:08 49.96017 11.52591 33133 ft 449 kts 96°
2026-05-06 19:08 49.95850 11.57440 32558 ft 449 kts 96°
2026-05-06 19:08 49.95678 11.62290 31961 ft 450 kts 96°
2026-05-06 19:08 49.95510 11.67148 31355 ft 450 kts 96°
2026-05-06 19:09 49.95346 11.71943 30741 ft 451 kts 96°
2026-05-06 19:09 49.95180 11.76786 30095 ft 451 kts 96°
2026-05-06 19:09 49.95012 11.81671 29537 ft 450 kts 96°
2026-05-06 19:09 49.94845 11.86505 29062 ft 446 kts 96°
2026-05-06 19:10 49.94675 11.91281 28563 ft 443 kts 96°
2026-05-06 19:10 49.94517 11.96067 28143 ft 438 kts 95°
2026-05-06 19:10 49.94410 12.00759 27717 ft 433 kts 94°
2026-05-06 19:10 49.94320 12.05372 27253 ft 431 kts 94°
2026-05-06 19:11 49.94235 12.10018 26769 ft 428 kts 94°
2026-05-06 19:11 49.94145 12.14631 26294 ft 424 kts 94°
2026-05-06 19:11 49.94050 12.19192 25826 ft 422 kts 94°
2026-05-06 19:11 49.93949 12.23736 25338 ft 419 kts 94°
2026-05-06 19:12 49.93881 12.26728 25022 ft 418 kts 94°
2026-05-06 19:12 49.93742 12.32689 24396 ft 414 kts 94°
2026-05-06 19:12 49.93631 12.37148 23987 ft 411 kts 94°
2026-05-06 19:12 49.93552 12.40071 23720 ft 408 kts 94°
2026-05-06 19:13 49.93427 12.44474 23237 ft 406 kts 94°
2026-05-06 19:13 49.93300 12.48849 22784 ft 404 kts 94°
2026-05-06 19:13 49.93174 12.53202 22312 ft 401 kts 94°
2026-05-06 19:13 49.93035 12.57510 21852 ft 400 kts 95°
2026-05-06 19:14 49.92901 12.61822 21383 ft 399 kts 94°
2026-05-06 19:14 49.92775 12.66113 20912 ft 397 kts 94°
2026-05-06 19:14 49.92651 12.70344 20458 ft 395 kts 94°
2026-05-06 19:14 49.92524 12.74595 19995 ft 393 kts 94°
2026-05-06 19:15 49.92396 12.78825 19534 ft 392 kts 94°
2026-05-06 19:15 49.92265 12.83046 19067 ft 390 kts 94°
2026-05-06 19:15 49.92133 12.87248 18606 ft 388 kts 94°
2026-05-06 19:15 49.91999 12.91416 18151 ft 387 kts 94°
2026-05-06 19:16 49.91865 12.95570 17694 ft 385 kts 94°
2026-05-06 19:16 49.91728 12.99720 17227 ft 383 kts 94°
2026-05-06 19:16 49.91591 13.03852 16787 ft 381 kts 94°
2026-05-06 19:16 49.91454 13.07954 16334 ft 380 kts 94°
2026-05-06 19:17 49.91318 13.11989 15885 ft 378 kts 94°
2026-05-06 19:17 49.91180 13.16048 15449 ft 376 kts 94°
2026-05-06 19:17 49.91042 13.20051 15303 ft 365 kts 94°
2026-05-06 19:17 49.90903 13.24031 14630 ft 371 kts 94°
2026-05-06 19:18 49.90764 13.28023 14141 ft 370 kts 94°
2026-05-06 19:18 49.90634 13.32002 13694 ft 369 kts 92°
2026-05-06 19:18 49.90980 13.35925 13227 ft 369 kts 72°
2026-05-06 19:18 49.92195 13.39400 12839 ft 366 kts 51°
2026-05-06 19:19 49.93873 13.42280 12764 ft 352 kts 46°
2026-05-06 19:19 49.95562 13.44956 12469 ft 342 kts 45°
2026-05-06 19:19 49.97197 13.47500 12088 ft 332 kts 45°
2026-05-06 19:19 49.98813 13.50003 11694 ft 323 kts 45°
2026-05-06 19:20 50.00390 13.52431 11274 ft 317 kts 45°
2026-05-06 19:20 50.01954 13.54833 10774 ft 314 kts 45°
2026-05-06 19:20 50.03494 13.57200 10271 ft 310 kts 47°
2026-05-06 19:20 50.04665 13.59958 9876 ft 302 kts 70°
2026-05-06 19:21 50.05301 13.62957 9805 ft 282 kts 76°
2026-05-06 19:21 50.05839 13.65799 9757 ft 265 kts 73°
2026-05-06 19:21 50.06373 13.68521 9771 ft 262 kts 75°
2026-05-06 19:21 50.06892 13.71223 9765 ft 258 kts 75°
2026-05-06 19:22 50.07372 13.73831 9762 ft 250 kts 76°
2026-05-06 19:22 50.07885 13.76393 9752 ft 240 kts 73°
2026-05-06 19:22 50.08371 13.78823 9757 ft 236 kts 75°
2026-05-06 19:22 50.08850 13.81293 9774 ft 241 kts 75°
2026-05-06 19:23 50.09337 13.83823 9782 ft 246 kts 75°
2026-05-06 19:23 50.09823 13.86376 9787 ft 243 kts 75°
2026-05-06 19:23 50.10314 13.88912 9771 ft 244 kts 73°
2026-05-06 19:23 50.10850 13.91435 9775 ft 247 kts 68°
2026-05-06 19:24 50.11922 13.93503 9784 ft 251 kts 32°
2026-05-06 19:24 50.13537 13.94495 9746 ft 250 kts
2026-05-06 19:24 50.15225 13.94159 9764 ft 248 kts 334°
2026-05-06 19:24 50.16569 13.92537 9787 ft 244 kts 303°
2026-05-06 19:25 50.17208 13.90138 9794 ft 240 kts 278°
2026-05-06 19:25 50.17452 13.87555 9778 ft 242 kts 275°
2026-05-06 19:25 50.17652 13.84985 9789 ft 240 kts 275°
2026-05-06 19:25 50.17991 13.82421 9759 ft 245 kts 293°
2026-05-06 19:26 50.19081 13.80411 9802 ft 247 kts 324°
2026-05-06 19:26 50.20524 13.78913 9797 ft 249 kts 325°
2026-05-06 19:26 50.21959 13.77376 9758 ft 247 kts 322°
2026-05-06 19:26 50.23367 13.75831 9702 ft 248 kts 324°
2026-05-06 19:27 50.24803 13.74314 9521 ft 249 kts 324°
2026-05-06 19:27 50.26242 13.72813 9315 ft 248 kts 326°
2026-05-06 19:27 50.27660 13.71379 9121 ft 246 kts 330°
2026-05-06 19:27 50.29312 13.70806 8884 ft 246 kts
2026-05-06 19:28 50.30902 13.71718 8819 ft 249 kts 38°
2026-05-06 19:28 50.31987 13.73776 8786 ft 245 kts 68°
2026-05-06 19:28 50.32557 13.76248 8755 ft 239 kts 73°
2026-05-06 19:28 50.33046 13.78724 8534 ft 238 kts 74°
2026-05-06 19:29 50.33522 13.81204 8262 ft 238 kts 75°
2026-05-06 19:29 50.33993 13.83687 8028 ft 237 kts 75°
2026-05-06 19:29 50.34430 13.86169 7805 ft 235 kts 76°
2026-05-06 19:29 50.34868 13.88600 7544 ft 234 kts 75°
2026-05-06 19:30 50.35343 13.91068 7257 ft 234 kts 75°
2026-05-06 19:30 50.35805 13.93477 7047 ft 232 kts 75°
2026-05-06 19:30 50.36258 13.95904 6837 ft 232 kts 75°
2026-05-06 19:30 50.36618 13.98355 6768 ft 233 kts 93°
2026-05-06 19:31 50.36102 14.00700 6785 ft 227 kts 128°
2026-05-06 19:31 50.34895 14.02207 6559 ft 226 kts 161°
2026-05-06 19:31 50.31944 14.01412 6089 ft 226 kts 212°
2026-05-06 19:32 50.30650 14.00027 5844 ft 226 kts 214°
2026-05-06 19:32 50.29352 13.98594 5605 ft 224 kts 214°
2026-05-06 19:32 50.28075 13.97326 5499 ft 212 kts 200°
2026-05-06 19:32 50.26673 13.97172 5338 ft 201 kts 163°
2026-05-06 19:33 50.25426 13.98010 5154 ft 196 kts 154°
2026-05-06 19:33 50.24191 13.98915 5042 ft 196 kts 155°
2026-05-06 19:33 50.22955 13.99833 4985 ft 199 kts 150°
2026-05-06 19:33 50.21970 14.01354 4795 ft 203 kts 121°
2026-05-06 19:34 50.21159 14.03187 4520 ft 205 kts 128°
2026-05-06 19:34 50.20297 14.04924 4280 ft 200 kts 127°
2026-05-06 19:34 50.19472 14.06636 3994 ft 197 kts 126°
2026-05-06 19:34 50.18648 14.08337 3708 ft 196 kts 126°
2026-05-06 19:35 50.17823 14.10018 3426 ft 193 kts 126°
2026-05-06 19:35 50.17024 14.11678 3183 ft 189 kts 125°
2026-05-06 19:35 50.16252 14.13293 2944 ft 186 kts 125°
2026-05-06 19:35 50.15479 14.14884 2739 ft 181 kts 126°
2026-05-06 19:36 50.14722 14.16435 2488 ft 176 kts 126°
2026-05-06 19:36 50.13992 14.17926 2214 ft 169 kts 127°
2026-05-06 19:36 50.13300 14.19326 2029 ft 154 kts 126°
2026-05-06 19:36 50.12677 14.20655 1827 ft 153 kts 127°
2026-05-06 19:37 50.12044 14.21972 1641 ft 155 kts 126°
2026-05-06 19:37 50.11394 14.23311 1438 ft 154 kts 127°
2026-05-06 19:37 50.10759 14.24624 1221 ft 151 kts 126°
2026-05-06 19:37 50.10344 14.25475 1182 ft 139 kts 127°
2026-05-06 19:38 50.09731 14.26748 1215 ft 81 kts 127°
2026-05-06 19:38 50.09486 14.27259 1214 ft 37 kts 127°
2026-05-06 19:38 50.09459 14.27489 1216 ft 23 kts 38°
2026-05-06 19:38 50.09586 14.27629 1209 ft 20 kts 35°
2026-05-06 19:39 50.09687 14.27580 1206 ft 16 kts 322°
2026-05-06 19:39 50.09765 14.27454 1205 ft 16 kts 315°
2026-05-06 19:39 50.09841 14.27335 1204 ft 15 kts 315°
2026-05-06 19:39 50.09907 14.27212 1204 ft 15 kts 309°
2026-05-06 19:40 50.09967 14.27082 1204 ft 16 kts 304°
2026-05-06 19:40 50.10038 14.26925 1201 ft 19 kts 310°
2026-05-06 19:40 50.10122 14.26761 1198 ft 20 kts 307°
2026-05-06 19:40 50.10206 14.26588 1195 ft 20 kts 307°
2026-05-06 19:41 50.10286 14.26422 1192 ft 19 kts 307°
2026-05-06 19:41 50.10363 14.26258 1189 ft 18 kts 307°
2026-05-06 19:41 50.10440 14.26102 1186 ft 18 kts 307°
2026-05-06 19:41 50.10473 14.26034 1184 ft 0 kts 308°
2026-05-06 19:42 50.10475 14.26030 1184 ft 1 kts 307°
2026-05-06 19:42 50.10493 14.25992 1183 ft 8 kts 307°
2026-05-06 19:42 50.10524 14.25927 1182 ft 11 kts 306°
2026-05-06 19:42 50.10570 14.25818 1182 ft 10 kts 303°
2026-05-06 19:43 50.10634 14.25817 1179 ft 12 kts 32°
2026-05-06 19:43 50.10683 14.25874 1174 ft 5 kts 34°
2026-05-06 19:43 50.10710 14.25912 1180 ft 5 kts 70°
2026-05-06 19:43 50.10697 14.25965 1174 ft 5 kts 124°
2026-05-06 19:44 50.10683 14.25996 1175 ft 1 kts 124°
2026-05-06 19:44 50.10680 14.26003 1176 ft 1 kts 124°
2026-05-06 19:44 50.10680 14.26005 1175 ft 0 kts 124°